This is the latest recevied weather packets stored in our database for station/object VA6GSB-13. If no packets are shown the sender has not sent any weather packets the latest 10 day(s).
| Time | Temp. | Humidity | Pressure | Rain* | Wind** | Luminosity | Snow |
|---|---|---|---|---|---|---|---|
| 1787444140 | 21.11° C | 79% | 1012 hPa | 0 mm | - | 71 W/m² | - |
| 1787443839 | 21.11° C | 79% | 1012 hPa | 0 mm | - | 73 W/m² | - |
| 1787443539 | 21.11° C | 80% | 1012 hPa | 0 mm | - | 74 W/m² | - |
| 1787443239 | 20.56° C | 81% | 1012 hPa | 0 mm | - | 78 W/m² | - |
| 1787442939 | 20.56° C | 82% | 1012 hPa | 0 mm | - | 80 W/m² | - |
| 1787442863 | 20.56° C | 82% | 1011.9 hPa | 0 mm | - | 80 W/m² | - |
| 1787442563 | 20.56° C | 83% | 1012 hPa | 0 mm | - | 85 W/m² | - |
| 1787442264 | 21.11° C | 82% | 1012 hPa | 0 mm | - | 83 W/m² | - |
| 1787441963 | 21.11° C | 81% | 1012 hPa | 0 mm | - | 72 W/m² | - |
| 1787441666 | 21.11° C | 80% | 1012.1 hPa | 0 mm | - | 62 W/m² | - |
| 1787441363 | 21.11° C | 80% | 1012.2 hPa | 0 mm | - | 53 W/m² | - |
| 1787441064 | 21.11° C | 80% | 1012.3 hPa | 0 mm | - | 50 W/m² | - |
| 1787440763 | 21.11° C | 79% | 1012.3 hPa | 0 mm | - | 50 W/m² | - |
| 1787440465 | 21.11° C | 80% | 1012.4 hPa | 0 mm | - | 55 W/m² | - |
| 1787440163 | 21.11° C | 79% | 1012.5 hPa | 0 mm | - | 64 W/m² | - |
| 1787439940 | 21.11° C | 79% | 1013 hPa | 0 mm | - | 71 W/m² | - |
| 1787439640 | 21.11° C | 79% | 1013 hPa | 0 mm | - | 78 W/m² | - |
| 1787439339 | 21.11° C | 78% | 1013 hPa | 0 mm | - | 80 W/m² | - |
| 1787439264 | 21.11° C | 77% | 1012.6 hPa | 0 mm | - | 80 W/m² | - |
| 1787438963 | 21.11° C | 77% | 1012.7 hPa | 0 mm | - | 83 W/m² | - |
| 1787438663 | 21.67° C | 77% | 1012.8 hPa | 0 mm | - | 85 W/m² | - |
| 1787438363 | 21.67° C | 75% | 1012.9 hPa | 0 mm | - | 85 W/m² | - |
| 1787438139 | 21.67° C | 75% | 1013 hPa | 0 mm | - | 83 W/m² | - |
| 1787437839 | 21.67° C | 74% | 1013 hPa | 0 mm | - | 84 W/m² | - |
| 1787437539 | 21.67° C | 74% | 1013 hPa | 0 mm | - | 90 W/m² | - |
* Rain latest hour (hover to see other rain measurements)
** Current wind speed in m/s (hover to see current wind gust speed)